# status: success
# code: 200
# message: 
# num_results: 1439
# fields: %Y-%m-%dT%H:%M:%SZ,air_temp,wind_speed,wind_direction
2016-07-11T00:00:00Z,24.7,8.7,175.0
2016-07-11T00:01:00Z,24.7,6.2,168.0
2016-07-11T00:02:00Z,24.7,7.5,176.0
2016-07-11T00:03:00Z,24.7,7.6,181.0
2016-07-11T00:04:00Z,24.7,6.9,171.0
2016-07-11T00:05:00Z,24.7,8.3,174.0
2016-07-11T00:06:00Z,24.7,7.8,159.0
2016-07-11T00:07:00Z,24.7,4.9,167.0
2016-07-11T00:08:00Z,24.8,6.3,165.0
2016-07-11T00:09:00Z,24.8,5.5,170.0
2016-07-11T00:10:00Z,24.7,6.0,172.0
2016-07-11T00:11:00Z,24.8,4.9,180.0
2016-07-11T00:12:00Z,24.8,4.6,173.0
2016-07-11T00:13:00Z,24.8,6.5,167.0
2016-07-11T00:14:00Z,24.7,6.1,164.0
2016-07-11T00:15:00Z,24.7,4.6,164.0
2016-07-11T00:16:00Z,24.7,6.1,172.0
2016-07-11T00:17:00Z,24.7,6.5,183.0
2016-07-11T00:18:00Z,24.6,6.1,182.0
2016-07-11T00:19:00Z,24.6,5.4,168.0
2016-07-11T00:20:00Z,24.7,6.4,190.0
2016-07-11T00:21:00Z,24.7,6.1,181.0
2016-07-11T00:22:00Z,24.6,5.4,183.0
2016-07-11T00:23:00Z,24.6,5.2,171.0
2016-07-11T00:24:00Z,24.6,5.5,174.0
2016-07-11T00:25:00Z,24.6,6.1,183.0
2016-07-11T00:26:00Z,24.6,5.7,181.0
2016-07-11T00:27:00Z,24.6,4.9,165.0
2016-07-11T00:28:00Z,24.7,3.7,190.0
2016-07-11T00:29:00Z,24.6,5.8,183.0
2016-07-11T00:30:00Z,24.6,4.8,186.0
2016-07-11T00:31:00Z,24.6,3.5,185.0
2016-07-11T00:32:00Z,24.6,2.9,189.0
2016-07-11T00:33:00Z,24.6,4.5,184.0
2016-07-11T00:34:00Z,24.5,4.8,181.0
2016-07-11T00:35:00Z,24.5,4.0,190.0
2016-07-11T00:36:00Z,24.5,4.8,182.0
2016-07-11T00:37:00Z,24.5,6.4,183.0
2016-07-11T00:38:00Z,24.4,6.8,172.0
2016-07-11T00:39:00Z,24.4,6.8,166.0
2016-07-11T00:40:00Z,24.4,4.6,175.0
2016-07-11T00:41:00Z,24.5,4.9,177.0
2016-07-11T00:42:00Z,24.5,5.4,169.0
2016-07-11T00:43:00Z,24.5,5.8,181.0
2016-07-11T00:44:00Z,24.4,5.4,174.0
2016-07-11T00:45:00Z,24.4,6.0,164.0
2016-07-11T00:46:00Z,24.4,5.8,174.0
2016-07-11T00:47:00Z,24.4,6.1,172.0
2016-07-11T00:48:00Z,24.4,4.4,173.0
2016-07-11T00:49:00Z,24.4,4.7,170.0
2016-07-11T00:50:00Z,24.4,5.3,167.0
2016-07-11T00:51:00Z,24.4,4.5,169.0
2016-07-11T00:52:00Z,24.4,4.0,166.0
2016-07-11T00:53:00Z,24.4,5.7,166.0
2016-07-11T00:54:00Z,24.3,5.2,167.0
2016-07-11T00:55:00Z,24.3,5.4,180.0
2016-07-11T00:56:00Z,24.3,4.6,171.0
2016-07-11T00:57:00Z,24.3,5.4,174.0
2016-07-11T00:58:00Z,24.3,4.4,171.0
2016-07-11T00:59:00Z,24.3,5.1,170.0
2016-07-11T01:00:00Z,24.3,6.4,163.0
2016-07-11T01:01:00Z,24.2,5.0,167.0
2016-07-11T01:02:00Z,24.3,5.7,168.0
2016-07-11T01:03:00Z,24.2,5.1,176.0
2016-07-11T01:04:00Z,24.2,5.2,171.0
2016-07-11T01:05:00Z,24.2,4.8,174.0
2016-07-11T01:06:00Z,24.2,5.0,170.0
2016-07-11T01:07:00Z,24.1,5.2,175.0
2016-07-11T01:08:00Z,24.1,5.4,169.0
2016-07-11T01:09:00Z,24.1,5.0,170.0
2016-07-11T01:10:00Z,24.1,5.2,170.0
2016-07-11T01:11:00Z,24.1,4.3,176.0
2016-07-11T01:12:00Z,24.1,4.4,179.0
2016-07-11T01:13:00Z,24.1,4.6,176.0
2016-07-11T01:14:00Z,24.0,4.7,171.0
2016-07-11T01:15:00Z,24.0,3.3,175.0
2016-07-11T01:16:00Z,24.0,3.6,172.0
2016-07-11T01:17:00Z,24.0,4.0,168.0
2016-07-11T01:18:00Z,24.0,3.8,166.0
2016-07-11T01:19:00Z,24.0,4.3,171.0
2016-07-11T01:20:00Z,23.9,4.3,166.0
2016-07-11T01:21:00Z,23.9,5.3,167.0
2016-07-11T01:22:00Z,23.9,5.5,169.0
2016-07-11T01:23:00Z,23.9,5.3,174.0
2016-07-11T01:24:00Z,23.9,5.0,170.0
2016-07-11T01:25:00Z,23.9,5.7,173.0
2016-07-11T01:26:00Z,23.9,5.0,168.0
2016-07-11T01:27:00Z,23.9,4.6,167.0
2016-07-11T01:28:00Z,23.9,3.8,173.0
2016-07-11T01:29:00Z,23.8,3.5,164.0
2016-07-11T01:30:00Z,23.8,4.3,167.0
2016-07-11T01:31:00Z,23.8,4.5,162.0
2016-07-11T01:32:00Z,23.8,3.7,166.0
2016-07-11T01:33:00Z,23.8,3.5,176.0
2016-07-11T01:34:00Z,23.8,3.6,168.0
2016-07-11T01:35:00Z,23.8,4.2,168.0
2016-07-11T01:36:00Z,23.8,3.9,169.0
2016-07-11T01:37:00Z,23.8,3.8,167.0
2016-07-11T01:38:00Z,23.8,3.5,180.0
2016-07-11T01:39:00Z,23.8,4.3,167.0
2016-07-11T01:40:00Z,23.8,4.7,176.0
2016-07-11T01:41:00Z,23.8,3.5,162.0
2016-07-11T01:42:00Z,23.8,3.2,163.0
2016-07-11T01:43:00Z,23.8,3.2,160.0
2016-07-11T01:44:00Z,23.7,4.0,170.0
2016-07-11T01:45:00Z,23.7,4.8,169.0
2016-07-11T01:46:00Z,23.7,5.5,167.0
2016-07-11T01:47:00Z,23.7,5.2,168.0
2016-07-11T01:48:00Z,23.7,4.6,167.0
2016-07-11T01:49:00Z,23.7,4.3,176.0
2016-07-11T01:50:00Z,23.7,4.4,165.0
2016-07-11T01:51:00Z,23.7,4.9,168.0
2016-07-11T01:52:00Z,23.7,4.6,174.0
2016-07-11T01:53:00Z,23.7,5.2,175.0
2016-07-11T01:54:00Z,23.6,4.3,165.0
2016-07-11T01:55:00Z,23.6,4.1,170.0
2016-07-11T01:56:00Z,23.6,3.9,165.0
2016-07-11T01:57:00Z,23.6,2.9,165.0
2016-07-11T01:58:00Z,23.6,3.3,153.0
2016-07-11T01:59:00Z,23.6,2.2,160.0
2016-07-11T02:00:00Z,23.6,2.9,152.0
2016-07-11T02:01:00Z,23.6,3.7,158.0
2016-07-11T02:02:00Z,23.7,4.4,149.0
2016-07-11T02:03:00Z,23.6,3.9,157.0
2016-07-11T02:04:00Z,23.5,4.7,157.0
2016-07-11T02:05:00Z,23.5,5.0,162.0
2016-07-11T02:06:00Z,23.6,4.5,159.0
2016-07-11T02:07:00Z,23.6,4.5,164.0
2016-07-11T02:08:00Z,23.5,4.2,159.0
2016-07-11T02:09:00Z,23.4,4.9,154.0
2016-07-11T02:10:00Z,23.4,5.1,159.0
2016-07-11T02:11:00Z,23.4,4.6,156.0
2016-07-11T02:12:00Z,23.4,4.5,165.0
2016-07-11T02:13:00Z,23.4,5.1,158.0
2016-07-11T02:14:00Z,23.4,5.6,157.0
2016-07-11T02:15:00Z,23.3,5.3,161.0
2016-07-11T02:16:00Z,23.3,4.4,159.0
2016-07-11T02:17:00Z,23.3,5.3,161.0
2016-07-11T02:18:00Z,23.3,5.2,160.0
2016-07-11T02:19:00Z,23.3,4.6,162.0
2016-07-11T02:20:00Z,23.3,4.4,161.0
2016-07-11T02:21:00Z,23.3,4.8,164.0
2016-07-11T02:22:00Z,23.2,4.8,163.0
2016-07-11T02:23:00Z,23.2,4.4,169.0
2016-07-11T02:24:00Z,23.2,5.1,165.0
2016-07-11T02:25:00Z,23.2,4.3,167.0
2016-07-11T02:26:00Z,23.2,4.5,166.0
2016-07-11T02:27:00Z,23.2,5.1,160.0
2016-07-11T02:28:00Z,23.2,5.5,165.0
2016-07-11T02:29:00Z,23.2,5.1,161.0
2016-07-11T02:30:00Z,23.2,4.8,168.0
2016-07-11T02:31:00Z,23.2,4.6,161.0
2016-07-11T02:32:00Z,23.1,5.2,163.0
2016-07-11T02:33:00Z,23.1,4.8,165.0
2016-07-11T02:34:00Z,23.1,4.7,162.0
2016-07-11T02:35:00Z,23.1,4.7,161.0
2016-07-11T02:36:00Z,23.1,4.9,164.0
2016-07-11T02:37:00Z,23.1,5.3,168.0
2016-07-11T02:38:00Z,23.1,5.2,160.0
2016-07-11T02:39:00Z,23.1,4.6,165.0
2016-07-11T02:40:00Z,23.1,4.3,167.0
2016-07-11T02:41:00Z,23.1,5.1,166.0
2016-07-11T02:42:00Z,23.2,5.2,168.0
2016-07-11T02:43:00Z,23.1,5.5,166.0
2016-07-11T02:44:00Z,23.1,5.4,169.0
2016-07-11T02:45:00Z,23.1,4.8,169.0
2016-07-11T02:46:00Z,23.1,5.3,178.0
2016-07-11T02:47:00Z,23.1,4.5,175.0
2016-07-11T02:48:00Z,23.1,5.5,171.0
2016-07-11T02:49:00Z,23.1,6.1,170.0
2016-07-11T02:50:00Z,23.0,5.6,168.0
2016-07-11T02:51:00Z,23.0,5.4,169.0
2016-07-11T02:52:00Z,23.0,6.2,168.0
2016-07-11T02:53:00Z,22.9,6.9,170.0
2016-07-11T02:54:00Z,22.9,6.9,173.0
2016-07-11T02:55:00Z,22.9,5.7,164.0
2016-07-11T02:56:00Z,22.9,5.5,168.0
2016-07-11T02:57:00Z,22.8,6.4,165.0
2016-07-11T02:58:00Z,22.8,6.8,169.0
2016-07-11T02:59:00Z,22.9,6.0,167.0
2016-07-11T03:00:00Z,22.8,5.4,169.0
2016-07-11T03:01:00Z,22.8,6.3,172.0
2016-07-11T03:02:00Z,22.8,5.7,169.0
2016-07-11T03:03:00Z,22.8,6.0,170.0
2016-07-11T03:04:00Z,22.8,5.9,168.0
2016-07-11T03:05:00Z,22.8,5.5,166.0
2016-07-11T03:06:00Z,22.8,5.0,169.0
2016-07-11T03:07:00Z,22.7,5.4,173.0
2016-07-11T03:08:00Z,22.8,5.8,166.0
2016-07-11T03:09:00Z,22.8,6.5,170.0
2016-07-11T03:10:00Z,22.7,5.7,170.0
2016-07-11T03:11:00Z,22.7,4.7,163.0
2016-07-11T03:12:00Z,22.7,6.4,172.0
2016-07-11T03:13:00Z,22.7,5.5,167.0
2016-07-11T03:14:00Z,22.7,5.3,171.0
2016-07-11T03:15:00Z,22.7,5.3,170.0
2016-07-11T03:16:00Z,22.7,5.9,167.0
2016-07-11T03:17:00Z,22.7,5.3,172.0
2016-07-11T03:18:00Z,22.6,5.6,168.0
2016-07-11T03:19:00Z,22.6,6.6,169.0
2016-07-11T03:20:00Z,22.6,5.8,167.0
2016-07-11T03:21:00Z,22.6,5.6,174.0
2016-07-11T03:22:00Z,22.6,5.7,170.0
2016-07-11T03:23:00Z,22.6,6.4,164.0
2016-07-11T03:24:00Z,22.6,5.3,170.0
2016-07-11T03:25:00Z,22.6,6.1,166.0
2016-07-11T03:26:00Z,22.6,5.9,165.0
2016-07-11T03:27:00Z,22.6,6.9,170.0
2016-07-11T03:28:00Z,22.6,5.8,165.0
2016-07-11T03:29:00Z,22.6,5.5,161.0
2016-07-11T03:30:00Z,22.6,4.9,166.0
2016-07-11T03:31:00Z,22.6,5.2,163.0
2016-07-11T03:32:00Z,22.6,6.0,162.0
2016-07-11T03:33:00Z,22.6,6.0,169.0
2016-07-11T03:34:00Z,22.6,7.4,166.0
2016-07-11T03:35:00Z,22.6,7.2,172.0
2016-07-11T03:36:00Z,22.6,6.2,170.0
2016-07-11T03:37:00Z,22.6,6.2,171.0
2016-07-11T03:38:00Z,22.6,6.4,167.0
2016-07-11T03:39:00Z,22.6,6.7,171.0
2016-07-11T03:40:00Z,22.6,6.7,167.0
2016-07-11T03:41:00Z,22.6,7.2,168.0
2016-07-11T03:42:00Z,22.6,6.6,170.0
2016-07-11T03:43:00Z,22.6,6.7,169.0
2016-07-11T03:44:00Z,22.6,6.4,167.0
2016-07-11T03:45:00Z,22.6,6.0,166.0
2016-07-11T03:46:00Z,22.5,6.6,170.0
2016-07-11T03:47:00Z,22.5,6.0,168.0
2016-07-11T03:48:00Z,22.5,6.4,167.0
2016-07-11T03:49:00Z,22.5,6.8,169.0
2016-07-11T03:50:00Z,22.5,6.0,165.0
2016-07-11T03:51:00Z,22.5,5.8,170.0
2016-07-11T03:52:00Z,22.5,5.1,171.0
2016-07-11T03:53:00Z,22.5,5.6,174.0
2016-07-11T03:54:00Z,22.5,5.1,180.0
2016-07-11T03:55:00Z,22.5,5.8,169.0
2016-07-11T03:56:00Z,22.5,5.6,166.0
2016-07-11T03:57:00Z,22.5,6.0,168.0
2016-07-11T03:58:00Z,22.5,6.2,176.0
2016-07-11T03:59:00Z,22.5,4.4,174.0
2016-07-11T04:00:00Z,22.5,6.2,165.0
2016-07-11T04:01:00Z,22.5,6.6,173.0
2016-07-11T04:02:00Z,22.4,6.0,171.0
2016-07-11T04:03:00Z,22.4,5.5,172.0
2016-07-11T04:04:00Z,22.4,5.0,170.0
2016-07-11T04:05:00Z,22.4,6.4,174.0
2016-07-11T04:06:00Z,22.4,5.9,175.0
2016-07-11T04:07:00Z,22.4,5.2,173.0
2016-07-11T04:08:00Z,22.4,5.4,175.0
2016-07-11T04:09:00Z,22.4,5.6,177.0
2016-07-11T04:10:00Z,22.4,6.8,179.0
2016-07-11T04:11:00Z,22.4,6.5,176.0
2016-07-11T04:12:00Z,22.4,6.3,178.0
2016-07-11T04:13:00Z,22.4,5.6,177.0
2016-07-11T04:14:00Z,22.4,6.2,171.0
2016-07-11T04:15:00Z,22.4,6.6,172.0
2016-07-11T04:16:00Z,22.4,6.5,170.0
2016-07-11T04:17:00Z,22.4,3.3,174.0
2016-07-11T04:18:00Z,22.4,5.0,174.0
2016-07-11T04:19:00Z,22.4,4.8,170.0
2016-07-11T04:20:00Z,22.4,6.6,171.0
2016-07-11T04:21:00Z,22.4,5.3,166.0
2016-07-11T04:22:00Z,22.4,4.8,169.0
2016-07-11T04:23:00Z,22.4,6.0,173.0
2016-07-11T04:24:00Z,22.4,7.3,168.0
2016-07-11T04:25:00Z,22.4,7.4,167.0
2016-07-11T04:26:00Z,22.4,5.7,163.0
2016-07-11T04:27:00Z,22.4,5.5,164.0
2016-07-11T04:28:00Z,22.4,5.7,171.0
2016-07-11T04:29:00Z,22.3,6.1,165.0
2016-07-11T04:30:00Z,22.3,5.2,166.0
2016-07-11T04:31:00Z,22.3,5.3,164.0
2016-07-11T04:32:00Z,22.3,5.1,157.0
2016-07-11T04:33:00Z,22.4,6.8,166.0
2016-07-11T04:34:00Z,22.4,6.3,161.0
2016-07-11T04:35:00Z,22.3,5.8,166.0
2016-07-11T04:36:00Z,22.3,6.4,173.0
2016-07-11T04:37:00Z,22.3,5.1,161.0
2016-07-11T04:38:00Z,22.3,5.6,168.0
2016-07-11T04:39:00Z,22.3,5.3,165.0
2016-07-11T04:40:00Z,22.3,6.6,172.0
2016-07-11T04:41:00Z,22.3,6.7,165.0
2016-07-11T04:42:00Z,22.3,6.9,167.0
2016-07-11T04:43:00Z,22.3,5.3,166.0
2016-07-11T04:44:00Z,22.3,7.3,165.0
2016-07-11T04:45:00Z,22.3,5.0,176.0
2016-07-11T04:46:00Z,22.2,6.1,172.0
2016-07-11T04:47:00Z,22.2,6.7,169.0
2016-07-11T04:48:00Z,22.2,4.7,166.0
2016-07-11T04:49:00Z,22.2,6.2,166.0
2016-07-11T04:50:00Z,22.2,7.2,168.0
2016-07-11T04:51:00Z,22.2,6.0,171.0
2016-07-11T04:52:00Z,22.2,5.7,172.0
2016-07-11T04:53:00Z,22.1,5.4,173.0
2016-07-11T04:54:00Z,22.1,5.3,174.0
2016-07-11T04:55:00Z,22.1,6.5,175.0
2016-07-11T04:56:00Z,22.1,6.2,176.0
2016-07-11T04:57:00Z,22.1,6.5,177.0
2016-07-11T04:58:00Z,22.1,6.9,176.0
2016-07-11T04:59:00Z,22.1,7.2,175.0
2016-07-11T05:00:00Z,22.1,7.2,175.0
2016-07-11T05:01:00Z,22.1,7.4,174.0
2016-07-11T05:02:00Z,22.1,6.1,175.0
2016-07-11T05:03:00Z,22.0,5.7,179.0
2016-07-11T05:04:00Z,22.0,5.0,178.0
2016-07-11T05:05:00Z,22.0,6.3,171.0
2016-07-11T05:06:00Z,22.0,6.4,173.0
2016-07-11T05:07:00Z,22.1,6.1,168.0
2016-07-11T05:08:00Z,22.0,5.8,181.0
2016-07-11T05:09:00Z,22.0,5.8,177.0
2016-07-11T05:10:00Z,22.0,5.0,164.0
2016-07-11T05:11:00Z,22.0,5.2,164.0
2016-07-11T05:12:00Z,22.0,5.2,167.0
2016-07-11T05:13:00Z,22.0,6.1,172.0
2016-07-11T05:14:00Z,22.0,5.4,166.0
2016-07-11T05:15:00Z,22.0,7.0,171.0
2016-07-11T05:16:00Z,22.0,6.3,169.0
2016-07-11T05:17:00Z,22.0,5.8,167.0
2016-07-11T05:18:00Z,22.0,5.7,167.0
2016-07-11T05:19:00Z,22.0,5.9,172.0
2016-07-11T05:20:00Z,22.0,6.5,167.0
2016-07-11T05:21:00Z,22.0,6.2,169.0
2016-07-11T05:22:00Z,22.0,5.3,171.0
2016-07-11T05:23:00Z,21.9,5.5,171.0
2016-07-11T05:24:00Z,21.9,5.5,178.0
2016-07-11T05:25:00Z,21.9,7.1,169.0
2016-07-11T05:26:00Z,21.9,5.6,160.0
2016-07-11T05:27:00Z,21.9,5.3,175.0
2016-07-11T05:28:00Z,21.9,5.4,167.0
2016-07-11T05:29:00Z,21.9,5.1,173.0
2016-07-11T05:30:00Z,21.9,5.2,174.0
2016-07-11T05:31:00Z,21.9,5.7,171.0
2016-07-11T05:32:00Z,21.9,5.5,169.0
2016-07-11T05:33:00Z,21.9,5.7,172.0
2016-07-11T05:34:00Z,21.9,6.5,167.0
2016-07-11T05:35:00Z,21.9,6.4,168.0
2016-07-11T05:36:00Z,21.9,5.0,165.0
2016-07-11T05:37:00Z,21.9,7.0,169.0
2016-07-11T05:38:00Z,21.8,4.8,171.0
2016-07-11T05:39:00Z,21.8,5.8,171.0
2016-07-11T05:40:00Z,21.8,5.5,170.0
2016-07-11T05:41:00Z,21.8,5.5,173.0
2016-07-11T05:42:00Z,21.8,4.8,166.0
2016-07-11T05:43:00Z,21.8,5.2,165.0
2016-07-11T05:44:00Z,21.8,4.7,170.0
2016-07-11T05:45:00Z,21.8,5.9,171.0
2016-07-11T05:46:00Z,21.8,5.6,168.0
2016-07-11T05:47:00Z,21.8,5.1,164.0
2016-07-11T05:48:00Z,21.8,6.2,173.0
2016-07-11T05:49:00Z,21.8,5.8,167.0
2016-07-11T05:50:00Z,21.8,5.8,171.0
2016-07-11T05:51:00Z,21.8,5.2,171.0
2016-07-11T05:52:00Z,21.7,4.8,176.0
2016-07-11T05:53:00Z,21.7,5.2,169.0
2016-07-11T05:54:00Z,21.7,5.6,168.0
2016-07-11T05:55:00Z,21.8,5.6,171.0
2016-07-11T05:56:00Z,21.8,4.9,175.0
2016-07-11T05:57:00Z,21.8,4.7,167.0
2016-07-11T05:58:00Z,21.8,5.2,171.0
2016-07-11T05:59:00Z,21.7,5.1,167.0
2016-07-11T06:00:00Z,21.8,5.2,164.0
2016-07-11T06:01:00Z,21.7,4.7,168.0
2016-07-11T06:02:00Z,21.7,4.9,165.0
2016-07-11T06:03:00Z,21.7,4.1,171.0
2016-07-11T06:04:00Z,21.7,4.0,163.0
2016-07-11T06:05:00Z,21.7,4.2,167.0
2016-07-11T06:06:00Z,21.8,4.2,163.0
2016-07-11T06:07:00Z,21.8,5.4,159.0
2016-07-11T06:08:00Z,21.8,4.9,166.0
2016-07-11T06:09:00Z,21.8,4.7,164.0
2016-07-11T06:10:00Z,21.8,4.4,166.0
2016-07-11T06:11:00Z,21.8,5.0,166.0
2016-07-11T06:12:00Z,21.8,4.3,164.0
2016-07-11T06:13:00Z,21.8,5.0,164.0
2016-07-11T06:14:00Z,21.8,3.2,161.0
2016-07-11T06:15:00Z,21.9,4.1,164.0
2016-07-11T06:16:00Z,21.8,4.4,169.0
2016-07-11T06:17:00Z,21.8,4.4,165.0
2016-07-11T06:18:00Z,21.8,5.3,171.0
2016-07-11T06:19:00Z,21.8,4.0,165.0
2016-07-11T06:20:00Z,21.8,4.9,166.0
2016-07-11T06:21:00Z,21.8,5.3,173.0
2016-07-11T06:22:00Z,21.8,3.7,173.0
2016-07-11T06:23:00Z,21.8,3.3,167.0
2016-07-11T06:24:00Z,21.8,4.3,169.0
2016-07-11T06:25:00Z,21.8,4.6,171.0
2016-07-11T06:26:00Z,21.8,4.3,166.0
2016-07-11T06:27:00Z,21.8,4.9,170.0
2016-07-11T06:28:00Z,21.9,4.9,158.0
2016-07-11T06:29:00Z,21.9,5.5,169.0
2016-07-11T06:30:00Z,21.9,5.0,171.0
2016-07-11T06:31:00Z,21.9,4.4,172.0
2016-07-11T06:32:00Z,21.9,3.6,169.0
2016-07-11T06:33:00Z,21.9,4.1,169.0
2016-07-11T06:34:00Z,21.9,4.9,174.0
2016-07-11T06:35:00Z,21.9,4.8,171.0
2016-07-11T06:36:00Z,21.9,4.6,174.0
2016-07-11T06:37:00Z,21.9,4.3,175.0
2016-07-11T06:38:00Z,21.9,4.4,178.0
2016-07-11T06:39:00Z,21.9,4.7,181.0
2016-07-11T06:40:00Z,21.9,4.7,172.0
2016-07-11T06:41:00Z,21.9,4.7,178.0
2016-07-11T06:42:00Z,21.9,5.0,178.0
2016-07-11T06:43:00Z,21.9,4.4,175.0
2016-07-11T06:44:00Z,21.9,4.3,174.0
2016-07-11T06:45:00Z,21.9,4.3,178.0
2016-07-11T06:46:00Z,21.9,4.2,171.0
2016-07-11T06:47:00Z,21.9,3.5,173.0
2016-07-11T06:48:00Z,21.9,4.1,175.0
2016-07-11T06:49:00Z,21.9,4.2,172.0
2016-07-11T06:50:00Z,21.9,3.8,166.0
2016-07-11T06:51:00Z,21.9,4.2,174.0
2016-07-11T06:52:00Z,21.9,3.8,169.0
2016-07-11T06:53:00Z,21.9,4.5,168.0
2016-07-11T06:54:00Z,21.9,3.3,177.0
2016-07-11T06:55:00Z,21.9,3.2,177.0
2016-07-11T06:56:00Z,22.0,3.8,164.0
2016-07-11T06:57:00Z,22.0,3.5,175.0
2016-07-11T06:58:00Z,22.0,3.7,180.0
2016-07-11T06:59:00Z,22.0,4.8,176.0
2016-07-11T07:00:00Z,22.0,3.9,175.0
2016-07-11T07:01:00Z,22.0,3.8,170.0
2016-07-11T07:02:00Z,22.0,4.5,180.0
2016-07-11T07:03:00Z,22.0,3.7,169.0
2016-07-11T07:04:00Z,22.0,4.8,181.0
2016-07-11T07:05:00Z,22.0,3.9,176.0
2016-07-11T07:06:00Z,21.9,3.6,176.0
2016-07-11T07:07:00Z,21.9,3.6,185.0
2016-07-11T07:08:00Z,21.9,4.5,186.0
2016-07-11T07:09:00Z,22.0,4.1,181.0
2016-07-11T07:10:00Z,21.9,3.4,174.0
2016-07-11T07:11:00Z,21.9,3.7,182.0
2016-07-11T07:12:00Z,21.9,3.5,183.0
2016-07-11T07:13:00Z,21.9,3.8,180.0
2016-07-11T07:14:00Z,21.9,4.4,184.0
2016-07-11T07:15:00Z,21.9,3.2,185.0
2016-07-11T07:16:00Z,21.9,3.9,177.0
2016-07-11T07:17:00Z,21.9,4.6,181.0
2016-07-11T07:18:00Z,21.9,4.4,178.0
2016-07-11T07:19:00Z,21.9,4.4,179.0
2016-07-11T07:20:00Z,21.9,4.7,172.0
2016-07-11T07:21:00Z,21.9,3.8,178.0
2016-07-11T07:22:00Z,21.9,5.1,184.0
2016-07-11T07:23:00Z,21.9,5.6,177.0
2016-07-11T07:24:00Z,21.9,4.5,172.0
2016-07-11T07:25:00Z,21.9,4.2,184.0
2016-07-11T07:26:00Z,21.9,4.4,185.0
2016-07-11T07:27:00Z,21.9,5.0,174.0
2016-07-11T07:28:00Z,21.9,4.9,181.0
2016-07-11T07:29:00Z,21.9,5.4,170.0
2016-07-11T07:30:00Z,21.9,5.2,180.0
2016-07-11T07:31:00Z,21.9,5.1,176.0
2016-07-11T07:32:00Z,21.9,4.4,180.0
2016-07-11T07:33:00Z,21.9,5.7,180.0
2016-07-11T07:34:00Z,21.9,5.3,175.0
2016-07-11T07:35:00Z,21.9,4.8,177.0
2016-07-11T07:36:00Z,21.8,5.2,184.0
2016-07-11T07:37:00Z,21.8,3.6,175.0
2016-07-11T07:38:00Z,21.8,3.8,177.0
2016-07-11T07:39:00Z,21.8,4.0,171.0
2016-07-11T07:40:00Z,21.8,4.3,176.0
2016-07-11T07:41:00Z,21.8,4.8,175.0
2016-07-11T07:42:00Z,21.8,5.4,179.0
2016-07-11T07:43:00Z,21.8,4.7,174.0
2016-07-11T07:44:00Z,21.8,4.9,177.0
2016-07-11T07:45:00Z,21.8,4.7,173.0
2016-07-11T07:46:00Z,21.8,4.0,171.0
2016-07-11T07:47:00Z,21.8,4.5,174.0
2016-07-11T07:48:00Z,21.8,4.8,173.0
2016-07-11T07:49:00Z,21.8,4.7,177.0
2016-07-11T07:50:00Z,21.8,4.3,177.0
2016-07-11T07:51:00Z,21.8,3.6,172.0
2016-07-11T07:52:00Z,21.8,3.4,178.0
2016-07-11T07:53:00Z,21.8,3.6,171.0
2016-07-11T07:54:00Z,21.8,4.4,188.0
2016-07-11T07:55:00Z,21.8,3.0,167.0
2016-07-11T07:56:00Z,21.8,3.0,171.0
2016-07-11T07:57:00Z,21.8,3.9,171.0
2016-07-11T07:58:00Z,21.8,4.2,175.0
2016-07-11T07:59:00Z,21.8,4.2,172.0
2016-07-11T08:00:00Z,21.8,3.7,170.0
2016-07-11T08:01:00Z,21.8,3.3,168.0
2016-07-11T08:02:00Z,21.8,4.7,171.0
2016-07-11T08:03:00Z,21.8,5.0,171.0
2016-07-11T08:04:00Z,21.8,4.2,175.0
2016-07-11T08:05:00Z,21.8,3.9,168.0
2016-07-11T08:06:00Z,21.8,4.4,170.0
2016-07-11T08:07:00Z,21.8,4.2,175.0
2016-07-11T08:08:00Z,21.8,4.4,168.0
2016-07-11T08:09:00Z,21.8,4.1,173.0
2016-07-11T08:10:00Z,21.8,4.6,170.0
2016-07-11T08:11:00Z,21.8,4.6,171.0
2016-07-11T08:12:00Z,21.7,4.4,173.0
2016-07-11T08:13:00Z,21.7,4.8,169.0
2016-07-11T08:14:00Z,21.7,4.5,166.0
2016-07-11T08:15:00Z,21.7,4.7,173.0
2016-07-11T08:16:00Z,21.7,4.6,169.0
2016-07-11T08:17:00Z,21.7,4.6,174.0
2016-07-11T08:18:00Z,21.7,4.5,170.0
2016-07-11T08:19:00Z,21.7,4.8,172.0
2016-07-11T08:20:00Z,21.7,5.0,171.0
2016-07-11T08:21:00Z,21.6,4.6,170.0
2016-07-11T08:22:00Z,21.6,4.8,170.0
2016-07-11T08:23:00Z,21.6,4.8,172.0
2016-07-11T08:24:00Z,21.6,5.4,170.0
2016-07-11T08:25:00Z,21.6,5.6,174.0
2016-07-11T08:26:00Z,21.6,5.5,171.0
2016-07-11T08:27:00Z,21.6,5.3,169.0
2016-07-11T08:28:00Z,21.6,5.4,170.0
2016-07-11T08:29:00Z,21.6,5.1,170.0
2016-07-11T08:30:00Z,21.5,5.2,170.0
2016-07-11T08:31:00Z,21.5,4.9,168.0
2016-07-11T08:32:00Z,21.5,4.9,177.0
2016-07-11T08:33:00Z,21.5,4.4,172.0
2016-07-11T08:34:00Z,21.5,4.4,173.0
2016-07-11T08:35:00Z,21.5,4.4,178.0
2016-07-11T08:36:00Z,21.5,4.4,172.0
2016-07-11T08:37:00Z,21.5,4.6,174.0
2016-07-11T08:38:00Z,21.5,4.7,172.0
2016-07-11T08:39:00Z,21.5,5.2,175.0
2016-07-11T08:40:00Z,21.5,4.3,173.0
2016-07-11T08:41:00Z,21.5,4.2,172.0
2016-07-11T08:42:00Z,21.5,4.7,174.0
2016-07-11T08:43:00Z,21.5,4.6,173.0
2016-07-11T08:44:00Z,21.4,4.1,173.0
2016-07-11T08:45:00Z,21.4,4.9,176.0
2016-07-11T08:46:00Z,21.4,4.8,175.0
2016-07-11T08:47:00Z,21.4,4.6,179.0
2016-07-11T08:48:00Z,21.4,4.7,174.0
2016-07-11T08:49:00Z,21.4,5.1,174.0
2016-07-11T08:50:00Z,21.4,4.5,173.0
2016-07-11T08:51:00Z,21.4,4.8,181.0
2016-07-11T08:52:00Z,21.4,4.7,173.0
2016-07-11T08:53:00Z,21.4,4.6,177.0
2016-07-11T08:54:00Z,21.4,4.8,177.0
2016-07-11T08:55:00Z,21.3,4.1,178.0
2016-07-11T08:56:00Z,21.3,4.0,177.0
2016-07-11T08:57:00Z,21.3,4.6,175.0
2016-07-11T08:58:00Z,21.3,4.8,176.0
2016-07-11T08:59:00Z,21.3,4.6,180.0
2016-07-11T09:00:00Z,21.3,4.8,179.0
2016-07-11T09:01:00Z,21.3,5.1,180.0
2016-07-11T09:02:00Z,21.3,4.5,181.0
2016-07-11T09:03:00Z,21.3,4.7,179.0
2016-07-11T09:04:00Z,21.3,4.7,186.0
2016-07-11T09:05:00Z,21.3,4.8,180.0
2016-07-11T09:06:00Z,21.3,4.7,175.0
2016-07-11T09:07:00Z,21.3,5.0,183.0
2016-07-11T09:08:00Z,21.2,4.9,178.0
2016-07-11T09:09:00Z,21.3,5.0,182.0
2016-07-11T09:10:00Z,21.2,4.3,177.0
2016-07-11T09:11:00Z,21.2,4.6,178.0
2016-07-11T09:12:00Z,21.2,4.7,181.0
2016-07-11T09:13:00Z,21.2,4.9,175.0
2016-07-11T09:14:00Z,21.2,4.7,176.0
2016-07-11T09:15:00Z,21.2,4.5,179.0
2016-07-11T09:16:00Z,21.2,4.7,178.0
2016-07-11T09:17:00Z,21.2,4.9,173.0
2016-07-11T09:18:00Z,21.1,4.8,176.0
2016-07-11T09:19:00Z,21.2,4.9,174.0
2016-07-11T09:20:00Z,21.1,4.5,176.0
2016-07-11T09:21:00Z,21.1,4.6,175.0
2016-07-11T09:22:00Z,21.1,5.0,176.0
2016-07-11T09:23:00Z,21.1,4.7,175.0
2016-07-11T09:24:00Z,21.1,5.0,174.0
2016-07-11T09:25:00Z,21.1,4.8,174.0
2016-07-11T09:26:00Z,21.1,4.9,168.0
2016-07-11T09:27:00Z,21.1,5.1,174.0
2016-07-11T09:28:00Z,21.1,4.9,175.0
2016-07-11T09:29:00Z,21.1,5.2,173.0
2016-07-11T09:30:00Z,21.1,4.8,178.0
2016-07-11T09:31:00Z,21.1,5.3,179.0
2016-07-11T09:32:00Z,21.1,4.9,173.0
2016-07-11T09:33:00Z,21.1,5.0,176.0
2016-07-11T09:34:00Z,21.1,4.9,175.0
2016-07-11T09:35:00Z,21.0,4.7,178.0
2016-07-11T09:36:00Z,21.0,4.3,177.0
2016-07-11T09:37:00Z,21.1,5.1,176.0
2016-07-11T09:38:00Z,21.0,4.5,181.0
2016-07-11T09:39:00Z,21.0,5.0,175.0
2016-07-11T09:40:00Z,21.0,4.4,176.0
2016-07-11T09:41:00Z,21.0,4.6,175.0
2016-07-11T09:42:00Z,21.0,4.6,176.0
2016-07-11T09:43:00Z,21.0,4.2,177.0
2016-07-11T09:44:00Z,21.0,4.6,182.0
2016-07-11T09:45:00Z,21.1,4.7,177.0
2016-07-11T09:46:00Z,21.0,4.7,182.0
2016-07-11T09:47:00Z,21.0,4.9,181.0
2016-07-11T09:48:00Z,21.0,4.7,182.0
2016-07-11T09:49:00Z,21.0,4.5,179.0
2016-07-11T09:50:00Z,21.0,4.9,181.0
2016-07-11T09:51:00Z,21.0,4.6,181.0
2016-07-11T09:52:00Z,21.0,4.3,177.0
2016-07-11T09:53:00Z,21.0,4.5,181.0
2016-07-11T09:54:00Z,21.0,4.3,173.0
2016-07-11T09:55:00Z,20.9,4.7,181.0
2016-07-11T09:56:00Z,20.9,4.3,175.0
2016-07-11T09:57:00Z,20.9,4.7,175.0
2016-07-11T09:58:00Z,20.9,4.9,182.0
2016-07-11T09:59:00Z,20.9,4.5,185.0
2016-07-11T10:00:00Z,20.9,4.7,186.0
2016-07-11T10:01:00Z,20.9,4.5,185.0
2016-07-11T10:02:00Z,20.9,4.9,186.0
2016-07-11T10:03:00Z,20.9,4.6,188.0
2016-07-11T10:04:00Z,20.9,4.8,188.0
2016-07-11T10:05:00Z,20.9,5.0,188.0
2016-07-11T10:06:00Z,20.9,4.9,183.0
2016-07-11T10:07:00Z,20.9,5.1,190.0
2016-07-11T10:08:00Z,20.9,4.6,184.0
2016-07-11T10:09:00Z,20.9,4.6,185.0
2016-07-11T10:10:00Z,20.9,4.8,189.0
2016-07-11T10:11:00Z,20.9,4.9,190.0
2016-07-11T10:12:00Z,20.9,4.6,185.0
2016-07-11T10:13:00Z,20.9,5.1,180.0
2016-07-11T10:14:00Z,20.9,5.4,181.0
2016-07-11T10:15:00Z,21.0,5.2,184.0
2016-07-11T10:16:00Z,20.9,4.7,183.0
2016-07-11T10:17:00Z,20.9,4.9,180.0
2016-07-11T10:18:00Z,20.9,5.0,177.0
2016-07-11T10:19:00Z,20.9,4.3,181.0
2016-07-11T10:20:00Z,20.9,4.8,181.0
2016-07-11T10:21:00Z,20.9,4.3,181.0
2016-07-11T10:22:00Z,20.9,4.2,181.0
2016-07-11T10:23:00Z,20.9,5.0,180.0
2016-07-11T10:24:00Z,20.9,4.5,181.0
2016-07-11T10:25:00Z,20.9,4.6,187.0
2016-07-11T10:26:00Z,20.9,4.3,182.0
2016-07-11T10:27:00Z,20.9,4.1,182.0
2016-07-11T10:28:00Z,20.9,4.1,182.0
2016-07-11T10:29:00Z,20.9,4.4,187.0
2016-07-11T10:30:00Z,20.9,4.6,185.0
2016-07-11T10:31:00Z,20.9,4.7,185.0
2016-07-11T10:32:00Z,20.9,4.4,181.0
2016-07-11T10:33:00Z,20.9,4.0,178.0
2016-07-11T10:34:00Z,20.9,4.2,187.0
2016-07-11T10:35:00Z,20.9,4.5,183.0
2016-07-11T10:36:00Z,20.9,3.7,189.0
2016-07-11T10:37:00Z,20.9,3.6,177.0
2016-07-11T10:38:00Z,20.8,4.3,178.0
2016-07-11T10:39:00Z,20.9,4.5,184.0
2016-07-11T10:40:00Z,20.9,4.4,187.0
2016-07-11T10:41:00Z,20.9,3.7,183.0
2016-07-11T10:42:00Z,20.9,3.6,194.0
2016-07-11T10:43:00Z,20.9,4.0,182.0
2016-07-11T10:44:00Z,20.9,4.6,182.0
2016-07-11T10:45:00Z,20.9,3.6,181.0
2016-07-11T10:46:00Z,20.9,4.1,185.0
2016-07-11T10:47:00Z,20.9,3.1,179.0
2016-07-11T10:48:00Z,20.9,3.8,188.0
2016-07-11T10:49:00Z,20.9,3.7,181.0
2016-07-11T10:50:00Z,20.9,3.1,180.0
2016-07-11T10:51:00Z,20.9,4.7,198.0
2016-07-11T10:52:00Z,20.9,3.9,183.0
2016-07-11T10:53:00Z,20.9,3.6,181.0
2016-07-11T10:54:00Z,20.9,3.8,190.0
2016-07-11T10:55:00Z,20.9,4.1,183.0
2016-07-11T10:56:00Z,20.9,4.4,185.0
2016-07-11T10:57:00Z,20.9,4.0,185.0
2016-07-11T10:58:00Z,20.9,3.6,188.0
2016-07-11T10:59:00Z,20.9,3.9,188.0
2016-07-11T11:00:00Z,20.9,3.6,187.0
2016-07-11T11:01:00Z,20.9,4.1,187.0
2016-07-11T11:02:00Z,20.9,3.4,186.0